Location: B?jaj?g
(11.7167°N, 92.6667°E)
Time: 22:51:26
(UTC+00:00)

Okean 1 - Pass Details

Date: 18 September 2020
Orbit: 537 x 557 km, 82.5° (Epoch: 20 October)

Event Time Altitude Azimuth Distance (km) Brightness Sun altitude
Rises 22:38:45 0° 176° (S) 2,720 6.9 -15.5°
Reaches altitude 10° 22:40:56 10° 172° (S) 1,829 6.0 -14.9°
Maximum altitude 22:44:53 57° 93° (E) 652 4.0 -14.0°
Drops below altitude 10° 22:48:51 10° 14° (NNE) 1,833 6.2 -13.0°
Sets 22:51:02 0° 11° (N) 2,727 7.1 -12.5°
